Regional Weather Roundup
Issued by NWS Binghamton, NY

Home | Current Version | Previous Version | Text Only | Print | Product List | Glossary On
Versions: 1 2 3 4 5 6 7 8 9 10 11 12 13 14 15 16 17 18 19 20 21 22 23 24 25 26 27 28 29 30 31 32 33 34 35 36 37 38 39 40 41 42 43 44 45 46 47 48 49 50
000
ASUS41 KBGM 021510
RWRBGM
RWRBGM
BINGHAMTON REGIONAL WEATHER ROUNDUP
NATIONAL WEATHER SERVICE BINGHAMTON NY
1100 AM EDT SUN AUG 02 2015

Note: "fair" indicates few or no clouds below 12,000 feet with no
significant weather and/or obstructions to visibility.

* = Station(s) that does not report precipitation, such as rain,
snow, etc, also no thunder or fog.

!NYZ009-015>018-022>025-036-037-044>046-055>057-062-021600
...CENTRAL NEW YORK...

CITY           SKY/WX    TMP DP  RH WIND       PRES   REMARKS
BINGHAMTON     SUNNY     71  58  63 SW7       29.95R
CORTLAND       FAIR      73  61  64 S5        29.93S
DANSVILLE      SUNNY     78  53  41 W8G16     29.89F
ELMIRA         SUNNY     77  59  53 SW9       29.90S
ITHACA         SUNNY     76  58  53 CALM      29.93R
HORNELL          N/A     75  54  46 W9        29.95S
MONTICELLO     SUNNY     73  57  56 MISG      29.98S
NORWICH        SUNNY     73  61  64 S8        29.93S
ONEONTA        SUNNY     72  54  53 SW3       29.96R
PENN YAN       SUNNY     77  59  53 SW7       29.90S
ROME           SUNNY     74  59  59 W5        29.90S
SIDNEY         SUNNY     75  63  64 W3        29.94R
SYRACUSE       PTSUNNY   77  62  59 SW6       29.87F
$$

!PAZ038>040-043-044-047-048-072-021600
...NORTHEAST PENNSYLVANIA...

CITY           SKY/WX    TMP DP  RH WIND       PRES   REMARKS
HAZLETON       SUNNY     77  55  47 CALM      30.02S
SCRANTON       SUNNY     76  58  53 SW8       29.96S
TOWANDA*       SUNNY     79  55  44 MISG      29.94S
$$
&&
KEY
WCI = WIND CHILL INDEX
VSB = VISIBILITY
HX  = HEAT INDEX
$$


USA.gov is the U.S. government's official web portal to all federal, state and local government web resources and services.